Time,TemperatureF,DewpointF,PressureIn,WindDirection,WindDirectionDegrees,WindSpeedMPH,WindSpeedGustMPH,Humidity,HourlyPrecipIn,Conditions,Clouds,dailyrainin,SoftwareType,DateUTC
2013-05-14 00:04:00,64.3,49.0,29.98,SSE,163,0.0,3.0,59,0.00,,,0.00,weatherlink.com 1.10,2013-05-14 07:04:00,
2013-05-14 00:19:00,63.5,50.0,29.99,SSE,148,0.0,2.0,61,0.00,,,0.00,weatherlink.com 1.10,2013-05-14 07:19:00,
2013-05-14 00:34:00,62.9,50.0,29.98,SSE,150,1.0,2.0,63,0.00,,,0.00,weatherlink.com 1.10,2013-05-14 07:34:00,
2013-05-14 00:49:00,63.0,50.0,29.98,SW,231,1.0,3.0,63,0.00,,,0.00,weatherlink.com 1.10,2013-05-14 07:49:00,
2013-05-14 01:04:00,63.2,50.0,29.98,SSE,156,0.0,2.0,62,0.00,,,0.00,weatherlink.com 1.10,2013-05-14 08:04:00,
2013-05-14 01:19:00,63.1,50.0,29.97,South,190,2.0,4.0,63,0.00,,,0.00,weatherlink.com 1.10,2013-05-14 08:19:00,
2013-05-14 01:34:00,63.1,50.0,29.96,SE,143,1.0,3.0,62,0.00,,,0.00,weatherlink.com 1.10,2013-05-14 08:34:00,
2013-05-14 01:49:00,63.0,50.0,29.96,SSE,156,3.0,3.0,62,0.00,,,0.00,weatherlink.com 1.10,2013-05-14 08:49:00,
2013-05-14 02:04:00,62.6,50.0,29.96,SE,145,2.0,3.0,63,0.00,,,0.00,weatherlink.com 1.10,2013-05-14 09:04:00,
2013-05-14 02:19:00,61.3,50.0,29.96,South,181,0.0,1.0,66,0.00,,,0.00,weatherlink.com 1.10,2013-05-14 09:19:00,
2013-05-14 02:34:00,60.9,49.0,29.95,SSE,151,1.0,3.0,66,0.00,,,0.00,weatherlink.com 1.10,2013-05-14 09:34:00,
2013-05-14 02:49:00,61.4,50.0,29.95,SSE,152,0.0,3.0,66,0.00,,,0.00,weatherlink.com 1.10,2013-05-14 09:49:00,
2013-05-14 03:04:00,61.4,50.0,29.95,ESE,117,1.0,6.0,67,0.00,,,0.00,weatherlink.com 1.10,2013-05-14 10:04:00,
2013-05-14 03:19:00,61.1,50.0,29.95,WNW,284,2.0,4.0,67,0.00,,,0.00,weatherlink.com 1.10,2013-05-14 10:19:00,
2013-05-14 03:34:00,60.8,50.0,29.94,South,190,0.0,2.0,67,0.00,,,0.00,weatherlink.com 1.10,2013-05-14 10:34:00,
2013-05-14 03:49:00,60.9,50.0,29.94,SW,225,1.0,2.0,67,0.00,,,0.00,weatherlink.com 1.10,2013-05-14 10:49:00,
2013-05-14 04:04:00,60.8,50.0,29.94,SSE,158,1.0,2.0,67,0.00,,,0.00,weatherlink.com 1.10,2013-05-14 11:04:00,
2013-05-14 04:19:00,60.8,49.0,29.94,SSE,158,1.0,1.0,66,0.00,,,0.00,weatherlink.com 1.10,2013-05-14 11:19:00,
2013-05-14 04:34:00,60.3,50.0,29.94,SE,139,0.0,1.0,68,0.00,,,0.00,weatherlink.com 1.10,2013-05-14 11:34:00,
2013-05-14 04:49:00,59.3,50.0,29.94,SE,139,1.0,3.0,71,0.00,,,0.00,weatherlink.com 1.10,2013-05-14 11:49:00,
2013-05-14 05:04:00,58.9,50.0,29.94,SSE,152,1.0,4.0,73,0.00,,,0.00,weatherlink.com 1.10,2013-05-14 12:04:00,
2013-05-14 05:19:00,58.4,51.0,29.94,SSE,165,2.0,3.0,75,0.00,,,0.00,weatherlink.com 1.10,2013-05-14 12:19:00,
2013-05-14 05:34:00,58.3,50.0,29.94,SSE,168,0.0,3.0,73,0.00,,,0.00,weatherlink.com 1.10,2013-05-14 12:34:00,
2013-05-14 05:49:00,57.9,50.0,29.95,SSW,209,1.0,2.0,75,0.00,,,0.00,weatherlink.com 1.10,2013-05-14 12:49:00,
2013-05-14 06:04:00,57.7,50.0,29.95,SSE,160,1.0,3.0,75,0.00,,,0.00,weatherlink.com 1.10,2013-05-14 13:04:00,
2013-05-14 06:19:00,57.7,50.0,29.95,SSW,205,2.0,2.0,76,0.00,,,0.00,weatherlink.com 1.10,2013-05-14 13:19:00,
2013-05-14 06:34:00,58.3,51.0,29.95,SSE,167,1.0,2.0,76,0.00,,,0.00,weatherlink.com 1.10,2013-05-14 13:34:00,
2013-05-14 06:49:00,60.8,51.0,29.96,SE,135,0.0,1.0,71,0.00,,,0.00,weatherlink.com 1.10,2013-05-14 13:49:00,
2013-05-14 07:04:00,62.9,52.0,29.96,ESE,117,1.0,2.0,68,0.00,,,0.00,weatherlink.com 1.10,2013-05-14 14:04:00,
2013-05-14 07:19:00,64.8,52.0,29.96,WSW,256,0.0,3.0,63,0.00,,,0.00,weatherlink.com 1.10,2013-05-14 14:19:00,
2013-05-14 07:35:00,66.0,52.0,29.96,East,81,0.0,3.0,61,0.00,,,0.00,weatherlink.com 1.10,2013-05-14 14:35:00,
2013-05-14 07:50:00,66.5,52.0,29.96,ESE,115,1.0,2.0,61,0.00,,,0.00,weatherlink.com 1.10,2013-05-14 14:50:00,
2013-05-14 08:05:00,67.7,53.0,29.96,SSE,148,1.0,3.0,60,0.00,,,0.00,weatherlink.com 1.10,2013-05-14 15:05:00,
2013-05-14 08:20:00,68.6,52.0,29.95,East,88,0.0,5.0,55,0.00,,,0.00,weatherlink.com 1.10,2013-05-14 15:20:00,
2013-05-14 08:35:00,69.9,54.0,29.96,NNW,335,3.0,4.0,57,0.00,,,0.00,weatherlink.com 1.10,2013-05-14 15:35:00,
2013-05-14 08:50:00,70.4,54.0,29.96,East,89,1.0,5.0,57,0.00,,,0.00,weatherlink.com 1.10,2013-05-14 15:50:00,
2013-05-14 09:05:00,72.4,55.0,29.96,North,360,3.0,4.0,54,0.00,,,0.00,weatherlink.com 1.10,2013-05-14 16:05:00,
2013-05-14 09:20:00,73.5,54.0,29.96,West,277,1.0,4.0,51,0.00,,,0.00,weatherlink.com 1.10,2013-05-14 16:20:00,
2013-05-14 09:35:00,74.6,54.0,29.96,NNW,345,1.0,8.0,49,0.00,,,0.00,weatherlink.com 1.10,2013-05-14 16:35:00,
2013-05-14 09:50:00,76.1,54.0,29.96,East,89,2.0,4.0,47,0.00,,,0.00,weatherlink.com 1.10,2013-05-14 16:50:00,
2013-05-14 10:05:00,77.4,54.0,29.96,ESE,114,1.0,4.0,45,0.00,,,0.00,weatherlink.com 1.10,2013-05-14 17:05:00,
2013-05-14 10:20:00,77.9,52.0,29.95,North,6,1.0,8.0,41,0.00,,,0.00,weatherlink.com 1.10,2013-05-14 17:20:00,
2013-05-14 10:35:00,79.3,54.0,29.96,WNW,285,1.0,6.0,41,0.00,,,0.00,weatherlink.com 1.10,2013-05-14 17:35:00,
2013-05-14 10:50:00,80.5,53.0,29.96,ESE,122,1.0,6.0,38,0.00,,,0.00,weatherlink.com 1.10,2013-05-14 17:50:00,
2013-05-14 11:05:00,80.8,52.0,29.96,East,101,1.0,8.0,37,0.00,,,0.00,weatherlink.com 1.10,2013-05-14 18:05:00,
2013-05-14 11:20:00,83.5,51.0,29.96,South,174,1.0,4.0,33,0.00,,,0.00,weatherlink.com 1.10,2013-05-14 18:20:00,
2013-05-14 11:35:00,83.3,50.0,29.96,NNW,341,3.0,6.0,32,0.00,,,0.00,weatherlink.com 1.10,2013-05-14 18:35:00,
2013-05-14 11:50:00,83.8,51.0,29.96,West,269,1.0,6.0,32,0.00,,,0.00,weatherlink.com 1.10,2013-05-14 18:50:00,
2013-05-14 12:05:00,84.5,50.0,29.96,West,281,1.0,7.0,30,0.00,,,0.00,weatherlink.com 1.10,2013-05-14 19:05:00,
2013-05-14 12:20:00,85.3,46.0,29.96,East,96,2.0,5.0,25,0.00,,,0.00,weatherlink.com 1.10,2013-05-14 19:20:00,
2013-05-14 12:35:00,86.6,47.0,29.96,WNW,287,4.0,6.0,25,0.00,,,0.00,weatherlink.com 1.10,2013-05-14 19:35:00,
2013-05-14 12:51:00,87.5,44.0,29.95,East,81,0.0,5.0,22,0.00,,,0.00,weatherlink.com 1.10,2013-05-14 19:51:00,
2013-05-14 13:06:00,88.5,38.0,29.95,East,91,3.0,5.0,17,0.00,,,0.00,weatherlink.com 1.10,2013-05-14 20:06:00,
2013-05-14 13:21:00,89.0,42.0,29.95,NNW,339,3.0,4.0,19,0.00,,,0.00,weatherlink.com 1.10,2013-05-14 20:21:00,
2013-05-14 13:36:00,90.2,38.0,29.94,ESE,108,2.0,5.0,16,0.00,,,0.00,weatherlink.com 1.10,2013-05-14 20:36:00,
2013-05-14 13:51:00,89.1,40.0,29.94,NNE,32,3.0,6.0,18,0.00,,,0.00,weatherlink.com 1.10,2013-05-14 20:51:00,
2013-05-14 14:06:00,88.4,47.0,29.94,ESE,112,1.0,7.0,24,0.00,,,0.00,weatherlink.com 1.10,2013-05-14 21:06:00,
2013-05-14 14:21:00,88.3,51.0,29.94,SE,127,2.0,7.0,28,0.00,,,0.00,weatherlink.com 1.10,2013-05-14 21:21:00,
2013-05-14 18:37:00,77.5,38.0,29.92,NE,40,1.0,6.0,24,0.00,,,0.00,weatherlink.com 1.10,2013-05-15 01:37:00,
2013-05-14 18:52:00,76.5,38.0,29.92,SE,143,1.0,4.0,25,0.00,,,0.00,weatherlink.com 1.10,2013-05-15 01:52:00,
2013-05-14 19:07:00,75.9,39.0,29.92,South,184,0.0,5.0,26,0.00,,,0.00,weatherlink.com 1.10,2013-05-15 02:07:00,
2013-05-14 19:22:00,74.6,34.0,29.92,WNW,294,2.0,4.0,23,0.00,,,0.00,weatherlink.com 1.10,2013-05-15 02:22:00,
2013-05-14 19:37:00,73.7,30.0,29.92,SW,215,0.0,5.0,20,0.00,,,0.00,weatherlink.com 1.10,2013-05-15 02:37:00,
2013-05-14 19:52:00,72.5,30.0,29.92,NE,47,3.0,3.0,21,0.00,,,0.00,weatherlink.com 1.10,2013-05-15 02:52:00,
2013-05-14 20:07:00,71.1,30.0,29.93,West,271,1.0,1.0,22,0.00,,,0.00,weatherlink.com 1.10,2013-05-15 03:07:00,
2013-05-14 20:22:00,69.3,32.0,29.93,SE,140,0.0,1.0,25,0.00,,,0.00,weatherlink.com 1.10,2013-05-15 03:22:00,
2013-05-14 20:37:00,67.6,32.0,29.94,ESE,110,0.0,1.0,27,0.00,,,0.00,weatherlink.com 1.10,2013-05-15 03:37:00,
2013-05-14 20:52:00,66.3,35.0,29.95,West,267,0.0,1.0,32,0.00,,,0.00,weatherlink.com 1.10,2013-05-15 03:52:00,
2013-05-14 21:07:00,65.6,37.0,29.95,SSW,195,1.0,3.0,35,0.00,,,0.00,weatherlink.com 1.10,2013-05-15 04:07:00,
2013-05-14 21:22:00,65.0,37.0,29.96,SW,228,1.0,2.0,36,0.00,,,0.00,weatherlink.com 1.10,2013-05-15 04:22:00,
2013-05-14 21:37:00,65.1,39.0,29.96,South,177,1.0,4.0,38,0.00,,,0.00,weatherlink.com 1.10,2013-05-15 04:37:00,
2013-05-14 21:52:00,63.9,39.0,29.96,SSE,160,1.0,4.0,40,0.00,,,0.00,weatherlink.com 1.10,2013-05-15 04:52:00,
2013-05-14 22:07:00,62.7,39.0,29.97,SSE,148,0.0,1.0,42,0.00,,,0.00,weatherlink.com 1.10,2013-05-15 05:07:00,
2013-05-14 22:22:00,62.4,39.0,29.97,SSE,148,1.0,3.0,43,0.00,,,0.00,weatherlink.com 1.10,2013-05-15 05:22:00,
2013-05-14 22:37:00,61.9,40.0,29.97,ENE,70,0.0,2.0,44,0.00,,,0.00,weatherlink.com 1.10,2013-05-15 05:37:00,
2013-05-14 22:52:00,60.9,40.0,29.97,SSW,194,0.0,1.0,46,0.00,,,0.00,weatherlink.com 1.10,2013-05-15 05:52:00,
2013-05-14 23:07:00,60.7,40.0,29.97,SSE,153,0.0,2.0,47,0.00,,,0.00,weatherlink.com 1.10,2013-05-15 06:07:00,
2013-05-14 23:22:00,60.5,40.0,29.97,SE,127,0.0,2.0,48,0.00,,,0.00,weatherlink.com 1.10,2013-05-15 06:22:00,
2013-05-14 23:37:00,59.4,40.0,29.97,SE,136,0.0,2.0,49,0.00,,,0.00,weatherlink.com 1.10,2013-05-15 06:37:00,
2013-05-14 23:52:00,59.1,40.0,29.97,South,170,0.0,1.0,49,0.00,,,0.00,weatherlink.com 1.10,2013-05-15 06:52:00,